| time (UTC) | temp F | wind direction | speed MPH | gust MPH | rain 1hr in | rain 24hr in | rain mn in | humidity % | barometer mb |
| 20260502202508 | 75 | 168 | 1.0 | 9.0 | 0.00 | 0.00 | 0.00 | 14 | 1018.9 |
| 20260502202007 | 74 | 61 | 2.0 | 10.0 | 0.00 | 0.00 | 0.00 | 14 | 1018.9 |
| 20260502201525 | 75 | 53 | 3.0 | 10.0 | 0.00 | 0.00 | 0.00 | 17 | 1018.9 |
| 20260502201009 | 74 | 54 | 1.0 | 10.0 | 0.00 | 0.00 | 0.00 | 14 | 1019.0 |
| 20260502200512 | 74 | 228 | 4.0 | 10.0 | 0.00 | 0.00 | 0.00 | 14 | 1019.2 |
| 20260502200026 | 74 | 167 | 1.0 | 9.0 | 0.00 | 0.00 | 0.00 | 15 | 1019.1 |
| 20260502195513 | 74 | 227 | 2.0 | 9.0 | 0.00 | 0.00 | 0.00 | 15 | 1019.1 |
| 20260502195013 | 74 | 63 | 3.0 | 9.0 | 0.00 | 0.00 | 0.00 | 14 | 1019.2 |
| 20260502194527 | 74 | 161 | 2.0 | 8.0 | 0.00 | 0.00 | 0.00 | 15 | 1019.4 |
| 20260502194009 | 74 | 68 | 1.0 | 6.0 | 0.00 | 0.00 | 0.00 | 15 | 1019.3 |
| 20260502193509 | 74 | 48 | 1.0 | 8.0 | 0.00 | 0.00 | 0.00 | 16 | 1019.4 |
| 20260502193023 | 74 | 212 | 0.0 | 8.0 | 0.00 | 0.00 | 0.00 | 15 | 1019.5 |
| 20260502192513 | 74 | 79 | 0.0 | 7.0 | 0.00 | 0.00 | 0.00 | 15 | 1019.6 |
| 20260502192013 | 74 | 258 | 1.0 | 5.0 | 0.00 | 0.00 | 0.00 | 17 | 1019.7 |
| 20260502191525 | 73 | 250 | 1.0 | 7.0 | 0.00 | 0.00 | 0.00 | 17 | 1019.7 |
| 20260502191008 | 72 | 194 | 2.0 | 8.0 | 0.00 | 0.00 | 0.00 | 18 | 1019.8 |
| 20260502190513 | 72 | 58 | 4.0 | 9.0 | 0.00 | 0.00 | 0.00 | 17 | 1020.0 |
| 20260502190040 | 72 | 69 | 2.0 | 10.0 | 0.00 | 0.00 | 0.00 | 16 | 1020.0 |
| 20260502185508 | 73 | 116 | 2.0 | 10.0 | 0.00 | 0.00 | 0.00 | 17 | 1020.0 |
| 20260502185012 | 72 | 33 | 2.0 | 6.0 | 0.00 | 0.00 | 0.00 | 16 | 1020.1 |
| 20260502184528 | 72 | 212 | 0.0 | 6.0 | 0.00 | 0.00 | 0.00 | 18 | 1020.2 |
| 20260502184011 | 72 | 181 | 1.0 | 7.0 | 0.00 | 0.00 | 0.00 | 16 | 1020.3 |
| 20260502183514 | 72 | 233 | 1.0 | 9.0 | 0.00 | 0.00 | 0.00 | 17 | 1020.4 |
| 20260502183027 | 72 | 188 | 3.0 | 9.0 | 0.00 | 0.00 | 0.00 | 17 | 1020.4 |
| 20260502182509 | 72 | 42 | 0.0 | 10.0 | 0.00 | 0.00 | 0.00 | 17 | 1020.5 |
| 20260502182010 | 71 | 162 | 1.0 | 10.0 | 0.00 | 0.00 | 0.00 | 17 | 1020.6 |
| 20260502181510 | 71 | 74 | 1.0 | 8.0 | 0.00 | 0.00 | 0.00 | 16 | 1020.6 |
| 20260502181007 | 70 | 219 | 1.0 | 9.0 | 0.00 | 0.00 | 0.00 | 19 | 1020.7 |
| 20260502180504 | 70 | 72 | 3.0 | 9.0 | 0.00 | 0.00 | 0.00 | 17 | 1020.8 |
| 20260502170509 | 68 | 54 | 1.0 | 6.0 | 0.00 | 0.00 | 0.00 | 20 | 1021.4 |
| 20260502164007 | 67 | 107 | 3.0 | 7.0 | 0.00 | 0.00 | 0.00 | 19 | 1021.4 |
| 20260502163505 | 67 | 45 | 2.0 | 7.0 | 0.00 | 0.00 | 0.00 | 18 | 1021.6 |
| 20260502161012 | 67 | 71 | 1.0 | 4.0 | 0.00 | 0.00 | 0.00 | 23 | 1021.6 |
| 20260502160513 | 66 | 35 | 0.0 | 9.0 | 0.00 | 0.00 | 0.00 | 25 | 1021.6 |
| 20260502152009 | 60 | 49 | 0.0 | 5.0 | 0.00 | 0.00 | 0.00 | 31 | 1021.9 |
| 20260502151005 | 59 | 234 | 0.0 | 4.0 | 0.00 | 0.00 | 0.00 | 35 | 1021.9 |
| 20260502130508 | 38 | 270 | 0.0 | 0.0 | 0.00 | 0.00 | 0.00 | 62 | 1022.4 |
| 20260502123507 | 34 | 302 | 0.0 | 0.0 | 0.00 | 0.00 | 0.00 | 67 | 1022.1 |
| 20260502123024 | 33 | 303 | 0.0 | 0.0 | 0.00 | 0.00 | 0.00 | 66 | 1022.2 |
| 20260502122508 | 33 | 302 | 0.0 | 0.0 | 0.00 | 0.00 | 0.00 | 66 | 1022.1 |
| 20260502122012 | 33 | 270 | 0.0 | 0.0 | 0.00 | 0.00 | 0.00 | 66 | 1021.9 |
| 20260502121520 | 33 | 302 | 0.0 | 0.0 | 0.00 | 0.00 | 0.00 | 65 | 1022.0 |
| 20260502121007 | 33 | 302 | 0.0 | 0.0 | 0.00 | 0.00 | 0.00 | 66 | 1021.9 |
| 20260502120508 | 33 | 302 | 0.0 | 0.0 | 0.00 | 0.00 | 0.00 | 66 | 1022.0 |
| 20260502115507 | 34 | 302 | 0.0 | 0.0 | 0.00 | 0.00 | 0.00 | 65 | 1021.9 |
| 20260502115006 | 34 | 302 | 0.0 | 0.0 | 0.00 | 0.00 | 0.00 | 65 | 1022.0 |
| 20260502114519 | 34 | 302 | 0.0 | 0.0 | 0.00 | 0.00 | 0.00 | 64 | 1022.1 |
| 20260502114008 | 35 | 302 | 0.0 | 0.0 | 0.00 | 0.00 | 0.00 | 64 | 1022.1 |
| 20260502113508 | 35 | 302 | 0.0 | 0.0 | 0.00 | 0.00 | 0.00 | 64 | 1022.1 |
| 20260502113032 | 35 | 302 | 0.0 | 0.0 | 0.00 | 0.00 | 0.00 | 64 | 1022.2 |
| 20260502112509 | 35 | 302 | 0.0 | 0.0 | 0.00 | 0.00 | 0.00 | 63 | 1022.1 |
| 20260502112008 | 35 | 302 | 0.0 | 0.0 | 0.00 | 0.00 | 0.00 | 62 | 1022.2 |
| 20260502111522 | 36 | 302 | 0.0 | 0.0 | 0.00 | 0.00 | 0.00 | 62 | 1022.1 |
| 20260502111008 | 36 | 302 | 0.0 | 0.0 | 0.00 | 0.00 | 0.00 | 61 | 1022.1 |
| 20260502110508 | 36 | 302 | 0.0 | 0.0 | 0.00 | 0.00 | 0.00 | 61 | 1022.2 |
| 20260502110032 | 36 | 302 | 0.0 | 0.0 | 0.00 | 0.00 | 0.00 | 61 | 1022.2 |
| 20260502105507 | 36 | 302 | 0.0 | 0.0 | 0.00 | 0.00 | 0.00 | 61 | 1022.3 |
| 20260502105007 | 36 | 302 | 0.0 | 0.0 | 0.00 | 0.00 | 0.00 | 61 | 1022.2 |
| 20260502104519 | 36 | 302 | 0.0 | 0.0 | 0.00 | 0.00 | 0.00 | 61 | 1022.2 |
| 20260502104010 | 37 | 302 | 0.0 | 1.0 | 0.00 | 0.00 | 0.00 | 61 | 1022.2 |
| 20260502102509 | 37 | 302 | 0.0 | 0.0 | 0.00 | 0.00 | 0.00 | 61 | 1022.1 |
| 20260502102012 | 38 | 302 | 0.0 | 0.0 | 0.00 | 0.00 | 0.00 | 59 | 1022.1 |
| 20260502101525 | 38 | 302 | 0.0 | 0.0 | 0.00 | 0.00 | 0.00 | 57 | 1022.1 |
| 20260502101010 | 38 | 302 | 0.0 | 0.0 | 0.00 | 0.00 | 0.00 | 57 | 1022.0 |
| 20260502100507 | 38 | 302 | 0.0 | 0.0 | 0.00 | 0.00 | 0.00 | 57 | 1022.0 |
| 20260502091520 | 41 | 302 | 0.0 | 0.0 | 0.00 | 0.00 | 0.00 | 54 | 1021.6 |
| 20260502091008 | 41 | 302 | 0.0 | 0.0 | 0.00 | 0.00 | 0.00 | 53 | 1021.6 |
| 20260502090515 | 41 | 302 | 0.0 | 0.0 | 0.00 | 0.00 | 0.00 | 53 | 1021.6 |
| 20260502071515 | 44 | 279 | 3.0 | 7.0 | 0.00 | 0.00 | 0.00 | 46 | 1021.8 |
| 20260502071009 | 44 | 270 | 2.0 | 7.0 | 0.00 | 0.00 | 0.00 | 47 | 1021.8 |
| 20260502070510 | 44 | 288 | 2.0 | 5.0 | 0.00 | 0.00 | 0.00 | 47 | 1021.8 |
| 20260502070036 | 44 | 275 | 2.0 | 7.0 | 0.00 | 0.00 | 0.00 | 47 | 1021.8 |
| 20260502065510 | 45 | 288 | 3.0 | 8.0 | 0.00 | 0.00 | 0.00 | 46 | 1021.8 |
| 20260502065010 | 45 | 275 | 3.0 | 8.0 | 0.00 | 0.00 | 0.00 | 46 | 1021.8 |
| 20260502064524 | 45 | 275 | 2.0 | 7.0 | 0.00 | 0.00 | 0.00 | 46 | 1021.8 |
| 20260502064010 | 45 | 279 | 2.0 | 7.0 | 0.00 | 0.00 | 0.00 | 46 | 1021.9 |
| 20260502063510 | 45 | 279 | 2.0 | 7.0 | 0.00 | 0.00 | 0.00 | 45 | 1021.9 |
| 20260502063035 | 45 | 270 | 3.0 | 7.0 | 0.00 | 0.00 | 0.00 | 46 | 1021.9 |
| 20260502062509 | 45 | 279 | 2.0 | 7.0 | 0.00 | 0.00 | 0.00 | 46 | 1021.9 |
| 20260502062015 | 45 | 270 | 3.0 | 7.0 | 0.00 | 0.00 | 0.00 | 45 | 1021.9 |
| 20260502061514 | 45 | 288 | 3.0 | 5.0 | 0.00 | 0.00 | 0.00 | 44 | 1021.9 |
| 20260502061010 | 46 | 279 | 2.0 | 5.0 | 0.00 | 0.00 | 0.00 | 44 | 1021.9 |
| 20260502060507 | 46 | 275 | 2.0 | 5.0 | 0.00 | 0.00 | 0.00 | 43 | 1021.9 |
| 20260502060018 | 46 | 279 | 0.0 | 5.0 | 0.00 | 0.00 | 0.00 | 43 | 1021.9 |
| 20260502055509 | 46 | 275 | 2.0 | 5.0 | 0.00 | 0.00 | 0.00 | 43 | 1021.8 |
| 20260502055008 | 46 | 287 | 2.0 | 5.0 | 0.00 | 0.00 | 0.00 | 43 | 1021.8 |
| 20260502054518 | 46 | 279 | 2.0 | 5.0 | 0.00 | 0.00 | 0.00 | 43 | 1021.7 |
| 20260502054003 | 46 | 275 | 1.0 | 5.0 | 0.00 | 0.00 | 0.00 | 43 | 1021.7 |
| 20260502053504 | 47 | 279 | 0.0 | 5.0 | 0.00 | 0.00 | 0.00 | 43 | 1021.8 |
| 20260502053007 | 47 | 275 | 0.0 | 5.0 | 0.00 | 0.00 | 0.00 | 43 | 1021.7 |
| 20260502052507 | 47 | 275 | 2.0 | 5.0 | 0.00 | 0.00 | 0.00 | 42 | 1021.7 |
| 20260502052006 | 47 | 287 | 2.0 | 7.0 | 0.00 | 0.00 | 0.00 | 42 | 1021.7 |
| 20260502051508 | 47 | 287 | 1.0 | 7.0 | 0.00 | 0.00 | 0.00 | 42 | 1021.7 |
| 20260502051008 | 47 | 279 | 1.0 | 4.0 | 0.00 | 0.00 | 0.00 | 42 | 1021.8 |
| 20260502050508 | 47 | 275 | 1.0 | 4.0 | 0.00 | 0.00 | 0.00 | 42 | 1021.7 |
| 20260502050024 | 47 | 279 | 0.0 | 3.0 | 0.00 | 0.00 | 0.00 | 42 | 1021.7 |
| 20260502045509 | 47 | 279 | 1.0 | 4.0 | 0.00 | 0.00 | 0.00 | 42 | 1021.7 |
| 20260502045008 | 47 | 275 | 0.0 | 4.0 | 0.00 | 0.00 | 0.00 | 41 | 1021.7 |
| 20260502044517 | 47 | 270 | 1.0 | 4.0 | 0.00 | 0.00 | 0.00 | 41 | 1021.7 |
| 20260502044008 | 47 | 270 | 2.0 | 4.0 | 0.00 | 0.00 | 0.00 | 41 | 1021.6 |
| 20260502043503 | 48 | 275 | 0.0 | 0.0 | 0.00 | 0.00 | 0.00 | 40 | 1021.6 |
| 20260502043006 | 48 | 275 | 0.0 | 0.0 | 0.00 | 0.00 | 0.00 | 40 | 1021.6 |
| 20260502042503 | 48 | 275 | 0.0 | 2.0 | 0.00 | 0.00 | 0.00 | 40 | 1021.6 |
| 20260502042005 | 48 | 275 | 0.0 | 3.0 | 0.00 | 0.00 | 0.00 | 39 | 1021.5 |
| 20260502041507 | 48 | 275 | 0.0 | 3.0 | 0.00 | 0.00 | 0.00 | 39 | 1021.5 |
| 20260502041005 | 48 | 279 | 0.0 | 2.0 | 0.00 | 0.00 | 0.00 | 40 | 1021.4 |
| 20260502040506 | 48 | 281 | 0.0 | 1.0 | 0.00 | 0.00 | 0.00 | 41 | 1021.4 |
| 20260502040012 | 48 | 281 | 0.0 | 1.0 | 0.00 | 0.00 | 0.00 | 42 | 1021.3 |
| 20260502035506 | 49 | 281 | 0.0 | 1.0 | 0.00 | 0.00 | 0.00 | 40 | 1021.2 |
| 20260502035007 | 49 | 281 | 0.0 | 1.0 | 0.00 | 0.00 | 0.00 | 38 | 1021.1 |
| 20260502034522 | 49 | 281 | 0.0 | 1.0 | 0.00 | 0.00 | 0.00 | 36 | 1021.1 |
| 20260502034010 | 50 | 281 | 0.0 | 1.0 | 0.00 | 0.00 | 0.00 | 36 | 1021.1 |
| 20260502033512 | 50 | 282 | 0.0 | 0.0 | 0.00 | 0.00 | 0.00 | 36 | 1021.0 |
| 20260502033021 | 51 | 270 | 0.0 | 0.0 | 0.00 | 0.00 | 0.00 | 35 | 1020.9 |
| 20260502032507 | 51 | 270 | 0.0 | 0.0 | 0.00 | 0.00 | 0.00 | 35 | 1020.9 |
| 20260502032003 | 51 | 270 | 0.0 | 0.0 | 0.00 | 0.00 | 0.00 | 34 | 1020.8 |
| 20260502031506 | 52 | 270 | 0.0 | 1.0 | 0.00 | 0.00 | 0.00 | 33 | 1020.7 |
| 20260502031005 | 52 | 270 | 0.0 | 1.0 | 0.00 | 0.00 | 0.00 | 33 | 1020.6 |
| 20260502030509 | 52 | 270 | 0.0 | 1.0 | 0.00 | 0.00 | 0.00 | 32 | 1020.5 |
| 20260502030008 | 53 | 270 | 0.0 | 1.0 | 0.00 | 0.00 | 0.00 | 32 | 1020.4 |
| 20260502025506 | 53 | 270 | 0.0 | 0.0 | 0.00 | 0.00 | 0.00 | 32 | 1020.3 |
| 20260502025006 | 54 | 270 | 0.0 | 0.0 | 0.00 | 0.00 | 0.00 | 32 | 1020.2 |
| 20260502024517 | 54 | 270 | 0.0 | 1.0 | 0.00 | 0.00 | 0.00 | 31 | 1020.2 |
| 20260502024007 | 55 | 270 | 0.0 | 1.0 | 0.00 | 0.00 | 0.00 | 30 | 1020.1 |
| 20260502023508 | 55 | 270 | 0.0 | 1.0 | 0.00 | 0.00 | 0.00 | 29 | 1020.0 |
| 20260502023018 | 56 | 270 | 0.0 | 1.0 | 0.00 | 0.00 | 0.00 | 29 | 1020.0 |
| 20260502022507 | 56 | 270 | 0.0 | 1.0 | 0.00 | 0.00 | 0.00 | 29 | 1019.8 |
| 20260502022011 | 57 | 270 | 0.0 | 1.0 | 0.00 | 0.00 | 0.00 | 29 | 1019.7 |
| 20260502021522 | 57 | 270 | 0.0 | 1.0 | 0.00 | 0.00 | 0.00 | 28 | 1019.7 |
| 20260502021012 | 57 | 270 | 0.0 | 2.0 | 0.00 | 0.00 | 0.00 | 28 | 1019.5 |
| 20260502020504 | 57 | 270 | 0.0 | 5.0 | 0.00 | 0.00 | 0.00 | 27 | 1019.5 |
| 20260502020009 | 57 | 270 | 0.0 | 5.0 | 0.00 | 0.00 | 0.00 | 27 | 1019.5 |
| 20260502015507 | 58 | 270 | 0.0 | 3.0 | 0.00 | 0.00 | 0.00 | 27 | 1019.4 |
| 20260502015005 | 58 | 270 | 0.0 | 4.0 | 0.00 | 0.00 | 0.00 | 27 | 1019.3 |
| 20260502014515 | 58 | 270 | 1.0 | 4.0 | 0.00 | 0.00 | 0.00 | 26 | 1019.3 |
| 20260502014005 | 58 | 270 | 0.0 | 4.0 | 0.00 | 0.00 | 0.00 | 27 | 1019.2 |
| 20260502013507 | 59 | 270 | 1.0 | 5.0 | 0.00 | 0.00 | 0.00 | 26 | 1019.2 |
| 20260502013016 | 59 | 270 | 1.0 | 5.0 | 0.00 | 0.00 | 0.00 | 25 | 1019.2 |
| 20260502012506 | 59 | 270 | 1.0 | 5.0 | 0.00 | 0.00 | 0.00 | 25 | 1019.0 |
| 20260502012007 | 59 | 270 | 1.0 | 5.0 | 0.00 | 0.00 | 0.00 | 25 | 1018.9 |
| 20260502011521 | 60 | 270 | 0.0 | 6.0 | 0.00 | 0.00 | 0.00 | 25 | 1018.9 |
| 20260502011012 | 60 | 270 | 1.0 | 6.0 | 0.00 | 0.00 | 0.00 | 25 | 1018.7 |
| 20260502010507 | 60 | 270 | 1.0 | 5.0 | 0.00 | 0.00 | 0.00 | 24 | 1018.5 |
| 20260502010022 | 60 | 270 | 2.0 | 8.0 | 0.00 | 0.00 | 0.00 | 24 | 1018.5 |
| 20260502005508 | 60 | 270 | 1.0 | 10.0 | 0.00 | 0.00 | 0.00 | 23 | 1018.3 |
| 20260502005004 | 60 | 270 | 3.0 | 10.0 | 0.00 | 0.00 | 0.00 | 23 | 1018.3 |
| 20260502004512 | 61 | 282 | 1.0 | 8.0 | 0.00 | 0.00 | 0.00 | 23 | 1018.4 |
| 20260502004006 | 61 | 280 | 2.0 | 8.0 | 0.00 | 0.00 | 0.00 | 22 | 1018.4 |
| 20260502003506 | 61 | 282 | 3.0 | 8.0 | 0.00 | 0.00 | 0.00 | 23 | 1018.3 |
| 20260502003012 | 61 | 283 | 2.0 | 7.0 | 0.00 | 0.00 | 0.00 | 23 | 1018.2 |
| 20260502002507 | 61 | 281 | 1.0 | 7.0 | 0.00 | 0.00 | 0.00 | 21 | 1018.3 |
| 20260502002012 | 62 | 282 | 1.0 | 9.0 | 0.00 | 0.00 | 0.00 | 20 | 1018.2 |
| 20260502001520 | 62 | 281 | 3.0 | 9.0 | 0.00 | 0.00 | 0.00 | 21 | 1018.2 |
| 20260502001008 | 62 | 283 | 3.0 | 10.0 | 0.00 | 0.00 | 0.00 | 22 | 1018.1 |
| 20260502000510 | 61 | 282 | 4.0 | 12.0 | 0.00 | 0.00 | 0.00 | 22 | 1018.2 |
| 20260502000027 | 62 | 282 | 5.0 | 12.0 | 0.00 | 0.00 | 0.00 | 21 | 1018.2 |
| 20260501235508 | 62 | 282 | 3.0 | 11.0 | 0.00 | 0.00 | 0.00 | 22 | 1018.2 |
| 20260501235010 | 62 | 282 | 2.0 | 11.0 | 0.00 | 0.00 | 0.00 | 21 | 1018.3 |
| 20260501234526 | 63 | 283 | 2.0 | 11.0 | 0.00 | 0.00 | 0.00 | 21 | 1018.4 |
| 20260501234010 | 63 | 283 | 5.0 | 11.0 | 0.00 | 0.00 | 0.00 | 20 | 1018.4 |
| 20260501233506 | 63 | 283 | 1.0 | 7.0 | 0.00 | 0.00 | 0.00 | 19 | 1018.4 |
| 20260501233008 | 62 | 270 | 1.0 | 7.0 | 0.00 | 0.00 | 0.00 | 21 | 1018.4 |
| 20260501232508 | 62 | 280 | 2.0 | 7.0 | 0.00 | 0.00 | 0.00 | 20 | 1018.4 |
| 20260501232010 | 62 | 282 | 1.0 | 9.0 | 0.00 | 0.00 | 0.00 | 21 | 1018.2 |
| 20260501231514 | 62 | 282 | 3.0 | 9.0 | 0.00 | 0.00 | 0.00 | 21 | 1018.3 |
| 20260501231007 | 62 | 282 | 3.0 | 9.0 | 0.00 | 0.00 | 0.00 | 21 | 1018.2 |
| 20260501230509 | 62 | 283 | 2.0 | 11.0 | 0.00 | 0.00 | 0.00 | 22 | 1018.1 |
| 20260501230020 | 63 | 283 | 3.0 | 11.0 | 0.00 | 0.00 | 0.00 | 21 | 1018.2 |
| 20260501225509 | 63 | 283 | 3.0 | 10.0 | 0.00 | 0.00 | 0.00 | 21 | 1018.2 |
| 20260501225010 | 63 | 281 | 2.0 | 10.0 | 0.00 | 0.00 | 0.00 | 20 | 1018.0 |
| 20260501224531 | 63 | 283 | 2.0 | 10.0 | 0.00 | 0.00 | 0.00 | 20 | 1018.0 |
| 20260501224008 | 64 | 281 | 2.0 | 9.0 | 0.00 | 0.00 | 0.00 | 19 | 1018.2 |
| 20260501223028 | 65 | 286 | 2.0 | 11.0 | 0.00 | 0.00 | 0.00 | 19 | 1018.2 |
| 20260501222503 | 65 | 282 | 3.0 | 11.0 | 0.00 | 0.00 | 0.00 | 19 | 1018.2 |
| 20260501222008 | 66 | 12 | 2.0 | 8.0 | 0.00 | 0.00 | 0.00 | 18 | 1018.1 |
| 20260501221513 | 66 | 44 | 1.0 | 8.0 | 0.00 | 0.00 | 0.00 | 18 | 1018.2 |
| 20260501221010 | 66 | 100 | 2.0 | 7.0 | 0.00 | 0.00 | 0.00 | 18 | 1018.2 |
| 20260501220508 | 66 | 290 | 2.0 | 13.0 | 0.00 | 0.00 | 0.00 | 18 | 1018.4 |
| 20260501220025 | 66 | 28 | 2.0 | 13.0 | 0.00 | 0.00 | 0.00 | 17 | 1018.4 |
| 20260501215512 | 66 | 62 | 0.0 | 10.0 | 0.00 | 0.00 | 0.00 | 16 | 1018.3 |
| 20260501215009 | 66 | 35 | 3.0 | 15.0 | 0.00 | 0.00 | 0.00 | 16 | 1018.4 |
| 20260501214522 | 65 | 275 | 1.0 | 15.0 | 0.00 | 0.00 | 0.00 | 17 | 1018.4 |
| 20260501214010 | 65 | 54 | 6.0 | 15.0 | 0.00 | 0.00 | 0.00 | 17 | 1018.3 |
| 20260501213511 | 66 | 98 | 3.0 | 10.0 | 0.00 | 0.00 | 0.00 | 18 | 1018.5 |
| 20260501213025 | 65 | 45 | 1.0 | 8.0 | 0.00 | 0.00 | 0.00 | 18 | 1018.6 |
| 20260501211527 | 66 | 23 | 2.0 | 8.0 | 0.00 | 0.00 | 0.00 | 18 | 1018.9 |
| 20260501211008 | 66 | 223 | 3.0 | 8.0 | 0.00 | 0.00 | 0.00 | 16 | 1018.9 |
| 20260501210510 | 66 | 319 | 1.0 | 9.0 | 0.00 | 0.00 | 0.00 | 16 | 1019.0 |
| 20260501210014 | 66 | 275 | 1.0 | 18.0 | 0.00 | 0.00 | 0.00 | 17 | 1019.1 |
| 20260501205507 | 67 | 36 | 6.0 | 18.0 | 0.00 | 0.00 | 0.00 | 18 | 1019.1 |
| 20260501205008 | 66 | 282 | 2.0 | 9.0 | 0.00 | 0.00 | 0.00 | 18 | 1019.1 |
| 20260501204524 | 66 | 289 | 2.0 | 9.0 | 0.00 | 0.00 | 0.00 | 18 | 1019.2 |
| 20260501204009 | 66 | 65 | 2.0 | 9.0 | 0.00 | 0.00 | 0.00 | 18 | 1019.2 |
| 20260501203508 | 66 | 65 | 3.0 | 9.0 | 0.00 | 0.00 | 0.00 | 18 | 1019.2 |
| 20260501203023 | 67 | 213 | 2.0 | 7.0 | 0.00 | 0.00 | 0.00 | 19 | 1019.2 |